THOR AGENA B R/B, 426

Orbit data source: Space-Track

THOR AGENA B R/B, 426 is space debris in LEO originally from a launch on Sat, 29 Sep 1962 UTC via a THOR AGENA B launch vehicle from the Air Force Western Test Range (AFWTR). Debris objects in space refer to the collection of defunct objects orbiting the Earth. Examples of debris include non-operational satellites, rocket bodies, and fragments generated from explosions, collisions, or faulty payload assembly.

Loading next visibility...
Identifier
426, 1962-049B
Orbit
LEO
Country
Flag of USUS
Related business
Manufacturer
GSFC
Mission
Spacecraft
Bus & Motor
TAVE, Unknown motor
Mass
900 kg wet, 91 kg dry
Launch date (UTC)
1962-09-29 (63 years ago)
Launch vehicle
THOR AGENA B
Launch site
Air Force Western Test Range (AFWTR)
Object type
Payload
Rocket body
Debris
Shape & HBR
Cyl + 1 Nozzle, 3.1 m
Radar Cross Section
8.306 m², Large (>1 m²)

Expand to show TLE details & history
Last TLE update: 7 hours ago

TLE from 7 hours ago
0 THOR AGENA B R/B
1 00426U 62049B   25242.87496462  .00000100  00000-0  10611-3 0  9997
2 00426  80.4717 194.8417 0016812 257.3587 161.4689 13.68721492140418
Epoch: 2025-08-30T20:59Z
TLE epoch observation values (Epoch: 2025-08-30T20:59:56.943Z)
Latitude
57.69959°
Longitude
-84.13286°
Altitude
1,025.566 km
Speed
7.339 km/s
True Right ascension
14h 00m 37s
True Declination
57° 32' 59"
Sunlit
Object was in daylight at epoch
Visualization orbit readout
Latitude
Unknown
Longitude
Unknown
Altitude
Unknown
Speed
Unknown
Apparent Right ascension
Unknown
Apparent Declination
Unknown
Sunlit
N/A
Visualization observer readout
Local Sidereal Time
20:03:38
Azimuth
Unknown
Elevation
Unknown
Doppler factor
Unknown
Orbital elements
Apogee altitude
1,013.839 km
Perigee altitude
989.026 km
Semi-major axis
7,379.569 km
Eccentricity
0.00168
Inclination
80.4717°
RAAN
194.8417°
Arg. of periapsis
257.3587°
True anomaly
161.53001°
Mean anomaly
161.4689°
Eccentric anomaly
161.49947°
Mean motion
3.42371 °/min
Orbital period
105.15 mins
BSTAR
0.00010611
Loading maneuver chart data...
Computing Atmospheric mass density...
Loading historical data...
Loading historical data...
Loading historical data...
Loading historical data...
Loading historical data...
Loading historical data...
Loading historical data...
Other satellites on launch #49 in the year 1962 (1962-09-29 UTC)

Documentation

Showing up to 5 results
|